Track COSMOS 1577 now! 10-day predictions COSMOS 1577 is classified as:
1 15077U 84067A 22184.57281262 .00000033 00000-0 18126-4 0 9993 2 15077 82.9562 195.3186 0037200 72.4767 45.0832 13.75465842654879